N. Polistena

Il Saint Michel fa suo il recupero in notturna contro il Nuovo Polistena

È andata in archivio la sfida tra Nuovo Polistena e Saint Michel valevole per il recupero della 21' giornata di campionato. L'incontro avvenuto mercoledì sera ore 20:30 presso lo stadio di Taurianova ha visto le...

Palmese, contro il Nuovo Polistena un 7-0 già replicato in passato

In casa Palmese il roboante 7-0 (non un record assoluto) colto contro il Nuovo Polistena, nella partita valevole per la ventiduesima giornata del campionato di Prima Categoria 2021-22, non è un punteggio inusuale. Tant’è...

Palmese, Nuovo Polistena battuto e momentaneo -6 dalla vetta

Ventuno anni dopo l’ultimo incrocio vincente contro i rossoverdi polistenesi la Palmese bissa il successo di allora imponendosi 7-0. Un successo la cui dedica non può che andare a Giuseppe Bantù… indimenticato tifoso neroverde scomparso...

Palmese, contro il Nuovo Polistena è sfida d’altri tempi

Dopo l’1-0 inferto alla Pro Pellaro per la Palmese arriva la seconda sfida casalinga consecutiva contro il Nuovo Polistena. Sfida che si giocherà nell’anticipo di sabato 2 aprile in vista della finale di Coppa...

Vittoria dei giallorossi del Taurianova sul Nuovo Polistena [FOTO]

Partita piacevole giocata a Taurianova con i locali giallorossi vittoriosi sul Polistena. Ad inizio gara è stato ricordato l’Avv. Luigi Mamone, figura molto conosciuta nella cittadina taurianovese e da sempre molto vicina alla società,...


DataCasaRisultatiTrasfertaOra
2022-05-29 14:30:0029/05/22- 14:30:0014:30
2022-05-22 14:30:0022/05/222 - 0 14:30:0014:30
2022-05-15 14:30:0015/05/222 - 2 14:30:0014:30
2022-05-08 14:30:0008/05/222 - 1 14:30:0014:30
2022-05-01 14:30:0001/05/221 - 0 14:30:0014:30
2022-04-24 14:30:0024/04/228 - 0 14:30:0014:30
2022-04-16 14:30:0016/04/221 - 1 14:30:0014:30
2022-04-10 14:30:0010/04/220 - 1 14:30:0014:30
2022-04-03 14:30:0003/04/227 - 0 14:30:0014:30
2022-03-27 14:30:0027/03/220 - 3 14:30:0014:30
2022-03-20 14:30:0020/03/224 - 2 14:30:0014:30
2022-03-13 14:30:0013/03/221 - 0 14:30:0014:30
2022-03-06 14:30:0006/03/224 - 1 14:30:0014:30
2022-02-27 14:30:0027/02/220 - 2 14:30:0014:30
2022-02-20 14:30:0020/02/221 - 4 14:30:0014:30
2022-02-13 14:30:0013/02/224 - 1 14:30:0014:30
2022-02-06 14:30:0006/02/222 - 0 14:30:0014:30
2022-01-30 14:30:0030/01/221 - 0 14:30:0014:30
2022-01-23 14:30:0023/01/221 - 2 14:30:0014:30
2021-12-19 14:30:0019/12/211 - 0 14:30:0014:30
2021-12-12 14:30:0012/12/211 - 2 14:30:0014:30
2021-12-05 14:30:0005/12/211 - 0 14:30:0014:30
2021-11-28 14:30:0028/11/216 - 0 14:30:0014:30
2021-11-21 14:30:0021/11/210 - 2 14:30:0014:30
2021-11-14 14:30:0014/11/211 - 0 14:30:0014:30
2021-11-07 15:30:0007/11/211 - 1 15:30:0015:30
2021-10-31 15:30:0031/10/212 - 0 15:30:0015:30
2021-10-24 15:30:0024/10/211 - 1 15:30:0015:30
2021-10-17 15:30:0017/10/211 - 2 15:30:0015:30
2021-10-10 15:30:0010/10/213 - 1 15:30:0015:30
2021-05-16 15:00:0016/05/21- 15:00:0015:00
2021-05-09 15:00:0009/05/21- 15:00:0015:00
2021-05-02 15:00:0002/05/21- 15:00:0015:00
2021-04-25 15:00:0025/04/21- 15:00:0015:00
2021-04-18 15:00:0018/04/21- 15:00:0015:00
2021-04-11 15:00:0011/04/21- 15:00:0015:00
2021-03-28 15:00:0028/03/21- 15:00:0015:00
2021-03-21 15:00:0021/03/21- 15:00:0015:00
2021-03-13 15:00:0013/03/21- 15:00:0015:00
2021-03-06 15:00:0006/03/21- 15:00:0015:00
2021-02-28 15:00:0028/02/21- 15:00:0015:00
2021-02-20 15:00:0020/02/21- 15:00:0015:00
2021-02-14 15:00:0014/02/21- 15:00:0015:00
2021-02-07 15:00:0007/02/21- 15:00:0015:00
2021-01-31 15:00:0031/01/21- 15:00:0015:00
2021-01-24 15:00:0024/01/21- 15:00:0015:00
2021-01-17 15:00:0017/01/21- 15:00:0015:00
2021-01-10 15:00:0010/01/21- 15:00:0015:00
2020-12-19 15:00:0019/12/20- 15:00:0015:00
2020-12-13 15:00:0013/12/20- 15:00:0015:00
2020-12-06 15:00:0006/12/20- 15:00:0015:00
2020-11-29 15:00:0029/11/20- 15:00:0015:00
2020-11-21 15:00:0021/11/20- 15:00:0015:00
2020-11-15 15:00:0015/11/20- 15:00:0015:00
2020-11-08 15:00:0008/11/20- 15:00:0015:00
2020-10-31 15:00:0031/10/20- 15:00:0015:00
2020-10-25 15:00:0025/10/201 - 0 15:00:0015:00
2020-10-18 15:00:0018/10/202 - 1 15:00:0015:00
2020-10-11 15:00:0011/10/202 - 2 15:00:0015:00
2020-10-03 15:00:0003/10/202 - 0 15:00:0015:00
2020-04-26 15:30:0026/04/20- 15:30:0015:30
2020-04-19 15:30:0019/04/20- 15:30:0015:30
2020-04-05 15:30:0005/04/20- 15:30:0015:30
2020-03-29 15:30:0029/03/20- 15:30:0015:30
2020-03-22 14:30:0022/03/20- 14:30:0014:30
2020-03-15 14:30:0015/03/20- 14:30:0014:30
2020-03-08 14:30:0008/03/20- 14:30:0014:30
2020-03-01 14:30:0001/03/208 - 0 14:30:0014:30
2020-02-16 14:30:0016/02/201 - 2 14:30:0014:30
2020-02-09 14:30:0009/02/200 - 1 14:30:0014:30
2020-01-26 14:30:0026/01/201 - 0 14:30:0014:30
2020-01-18 14:30:0018/01/201 - 2 14:30:0014:30
2020-01-12 14:30:0012/01/201 - 0 14:30:0014:30
2019-12-14 14:30:0014/12/190 - 2 14:30:0014:30
2019-12-08 14:30:0008/12/192 - 1 14:30:0014:30
2019-12-01 14:30:0001/12/193 - 0 14:30:0014:30
2019-11-17 14:30:0017/11/194 - 1 14:30:0014:30
2019-11-10 15:30:0010/11/190 - 1 15:30:0015:30
2019-11-03 15:30:0003/11/190 - 0 15:30:0015:30
2019-10-27 15:30:0027/10/190 - 0 15:30:0015:30
2019-05-05 16:00:0005/05/191 - 1 16:00:0016:00
2019-04-28 16:00:0028/04/196 - 2 16:00:0016:00
2019-04-14 16:00:0014/04/191 - 0 16:00:0016:00
2019-04-06 16:00:0006/04/193 - 0 16:00:0016:00
2019-03-31 16:00:0031/03/191 - 2 16:00:0016:00
2019-03-24 15:00:0024/03/191 - 0 15:00:0015:00
2019-03-09 15:00:0009/03/192 - 1 15:00:0015:00
2019-03-02 15:00:0002/03/193 - 0 15:00:0015:00
2019-02-24 17:30:0024/02/191 - 3 17:30:0017:30
2019-02-16 14:30:0016/02/194 - 2 14:30:0014:30
2019-02-10 14:30:0010/02/193 - 0 14:30:0014:30
2019-02-02 14:30:0002/02/192 - 1 14:30:0014:30
2019-01-27 14:30:0027/01/193 - 2 14:30:0014:30
2019-01-20 14:30:0020/01/192 - 1 14:30:0014:30
2019-01-13 14:30:0013/01/190 - 1 14:30:0014:30
2018-12-16 17:30:0016/12/180 - 2 17:30:0017:30
2018-12-09 14:30:0009/12/182 - 2 14:30:0014:30
2018-12-01 14:30:0001/12/180 - 3 14:30:0014:30
2018-11-18 14:30:0018/11/183 - 2 14:30:0014:30
2018-11-10 14:30:0010/11/183 - 0 14:30:0014:30
2018-11-04 14:30:0004/11/181 - 2 14:30:0014:30
2018-10-27 15:30:0027/10/180 - 2 15:30:0015:30
2018-10-21 15:30:0021/10/181 - 1 15:30:0015:30
2018-10-13 15:30:0013/10/182 - 0 15:30:0015:30
2018-04-29 16:00:0029/04/181 - 1 16:00:0016:00
2018-04-22 16:00:0022/04/180 - 0 16:00:0016:00
2018-04-15 16:00:0015/04/180 - 0 16:00:0016:00
2018-04-08 16:00:0008/04/182 - 1 16:00:0016:00
2018-03-24 15:00:0024/03/182 - 2 15:00:0015:00
2018-03-18 15:00:0018/03/182 - 1 15:00:0015:00
2018-03-10 15:00:0010/03/181 - 0 15:00:0015:00
2018-03-04 15:00:0004/03/181 - 2 15:00:0015:00
2018-02-24 14:30:0024/02/180 - 0 14:30:0014:30
2018-02-18 14:30:0018/02/180 - 1 14:30:0014:30
2018-02-10 00:00:0010/02/183 - 1 00:00:000:00
2018-02-04 14:30:0004/02/180 - 3 14:30:0014:30
2018-01-28 14:30:0028/01/181 - 0 14:30:0014:30
2018-01-20 14:30:0020/01/184 - 1 14:30:0014:30
2018-01-14 14:30:0014/01/183 - 2 14:30:0014:30
2018-01-07 14:30:0007/01/185 - 2 14:30:0014:30
2017-12-16 14:30:0016/12/171 - 4 14:30:0014:30
2017-12-10 14:30:0010/12/171 - 0 14:30:0014:30
2017-12-03 14:30:0003/12/171 - 0 14:30:0014:30
2017-11-26 14:30:0026/11/170 - 1 14:30:0014:30
2017-11-19 14:30:0019/11/170 - 2 14:30:0014:30
2017-11-12 14:30:0012/11/172 - 2 14:30:0014:30
2017-11-04 14:30:0004/11/170 - 0 14:30:0014:30
2017-10-29 14:30:0029/10/172 - 0 14:30:0014:30
2017-10-22 15:30:0022/10/172 - 0 15:30:0015:30
2017-10-15 15:30:0015/10/172 - 0 15:30:0015:30